#timestamp,LO_Frequency,Hit,StdDev 
1539774015.4,286047000.5,N
1539774035.2,286046998.7,N
1539774055.0,286046999.0,N
1539774055.9,286046999.0,N
1539774075.8,286046998.5,N
1539774095.6,286046998.8,N
1539774115.4,286046998.4,N
1539774135.3,286046998.6,N
1539774155.1,286047001.1,N
1539774175.9,286047001.2,N
1539774195.7,286047001.1,N
1539774215.5,286047000.9,N
1539774235.4,286046998.1,N
1539774255.2,286047001.1,N
1539774275.0,286046998.6,N
1539774275.9,286046998.6,N
1539774295.8,286047000.9,N
1539774315.6,286047000.6,N
1539774335.5,286046998.1,N
1539774355.3,286046998.1,N
1539774375.2,286046999.5,N
1539774395.9,286046998.1,N
1539774415.7,286047000.6,N
1539774435.6,286047002.3,N
1539774455.4,286047000.5,N
1539774475.2,286047002.8,N
1539774495.1,286047002.7,N
1539774496.0,286047002.7,N
1539774515.8,286047002.8,N
1539774535.7,286047000.1,N
1539774555.5,286047000.3,N
1539774575.3,286046999.7,N
1539774595.2,286047000.2,N
1539774615.0,286047002.7,N
1539774615.9,286047002.7,N
1539774635.8,286047002.8,N
1539774655.6,286046999.8,N
1539774675.4,286046998.5,N
1539774695.3,286046998.3,N
1539774715.1,286046997.0,N
1539774735.8,286046999.4,N
1539774755.7,286046998.8,N
1539774775.5,286046998.5,N
1539774795.4,286046998.2,N
1539774815.2,286046996.6,N
1539774835.1,286046997.0,N
1539774836.0,286046997.0,N
1539774855.8,286046997.2,N
1539774875.6,286046996.7,N
1539774895.5,286046997.3,N
1539774915.3,286046997.0,N
1539774935.1,286046998.6,N
1539774955.9,286046998.9,N
1539774975.7,286047000.8,N
1539774995.6,286047000.4,N
1539775015.4,286047000.9,N
1539775035.2,286047000.4,N
1539775055.1,286047000.8,N
1539775056.0,286047000.8,N
1539775075.8,286047001.2,N
1539775095.7,286046998.9,N
1539775115.5,286046998.6,N
1539775135.4,286047000.4,N
1539775155.2,286047000.8,N
1539775175.1,286046998.1,N
1539775176.0,286046998.1,N
1539775195.8,286046998.7,N
1539775215.6,286046999.6,N
1539775235.5,286046998.7,N
1539775255.3,286046998.6,N
1539775275.2,286047000.3,N
1539775295.9,286046998.2,N
1539775315.6,286046999.2,N
1539775335.4,286046998.6,N
1539775355.2,286046999.7,N
1539775375.1,286047000.1,N
1539775395.4,286046998.7,N
1539775415.2,286046998.3,N
1539775435.1,286047000.4,N
1539775436.0,286047000.4,N
1539775455.8,286046999.8,N
1539775475.6,286047002.3,N
1539775495.5,286047002.3,N
1539775515.3,286046998.4,N
1539775535.2,286046998.9,N
1539775555.9,286046998.5,N
1539775575.7,286047000.8,N
1539775595.6,286046998.1,N
1539775615.4,286046998.3,N
1539775635.2,286046999.4,N
1539775655.1,286047001.2,N
1539775656.0,286047001.2,N
1539775675.8,286046998.1,N
1539775695.7,286047002.6,N
1539775715.5,286046998.1,N
1539775735.3,286046998.1,N
1539775755.2,286047000.7,N
1539775775.0,286047002.4,N
1539775775.9,286047002.4,N
1539775795.7,286047002.7,N
1539775815.6,286047002.8,N
1539775835.4,286047002.0,N
1539775855.3,286047001.3,N
1539775875.1,286047001.7,N
1539775876.0,286047001.7,N
1539775895.8,286047004.4,N
1539775915.7,286047001.7,N
1539775935.5,286047001.3,N
1539775955.3,286047001.8,N
1539775975.2,286047004.0,N
1539775995.0,286047001.5,N
1539775995.9,286047001.5,N
1539776015.8,286047001.4,N
1539776035.6,286047003.6,N
1539776055.4,286047005.7,Y
1539776075.3,286047004.2,P
1539776095.1,286047001.7,N
1539776115.8,286047004.0,N
1539776135.7,286047004.0,N
1539776155.5,286047004.0,N
1539776175.4,286047001.3,N
1539776195.2,286047001.3,N
1539776215.0,286047004.1,N
1539776215.9,286047004.1,N
1539776235.8,286047003.9,N
1539776255.6,286047001.9,N
1539776275.4,286047001.6,N
1539776295.3,286047001.6,N
1539776315.1,286047001.9,N
1539776335.9,286047002.4,N
1539776355.7,286047000.1,N
1539776375.5,286046999.8,N
1539776395.4,286047000.9,N
1539776415.2,286047000.0,N
1539776435.1,286047000.5,N
1539776436.0,286047000.5,N
1539776455.8,286047000.9,N
1539776475.6,286047000.4,N
1539776495.5,286046999.9,N
1539776515.4,286047001.2,N
1539776535.2,286047002.7,N
1539776555.1,286047002.2,N
1539776556.0,286047002.2,N
1539776575.8,286047001.9,N
1539776595.7,286047000.1,N
1539776615.5,286047002.8,N
1539776635.3,286047002.4,N
1539776655.2,286047001.6,N
1539776675.9,286047002.0,N
1539776695.7,286047001.0,N
1539776715.6,286047000.3,N
1539776735.4,286046998.1,N
1539776755.2,286046998.5,N
1539776775.1,286046998.8,N
1539776776.0,286046998.8,N
1539776795.8,286046998.5,N
1539776815.7,286046999.3,N
1539776835.5,286046999.6,N
1539776855.3,286046998.7,N
1539776875.2,286046998.9,N
1539776895.0,286046999.0,N
1539776895.9,286046999.0,N
1539776915.7,286046998.3,N
1539776935.6,286046996.9,N
1539776955.4,286046997.4,N
1539776975.3,286046996.9,N
1539776995.1,286046996.9,N
1539776996.0,286046996.9,N
1539777015.8,286046999.6,N
1539777035.7,286046998.3,N
1539777055.5,286046999.2,N
1539777075.3,286046996.7,N
1539777095.2,286046999.6,N
1539777115.0,286046997.3,N
1539777115.9,286046997.3,N
1539777135.8,286046997.3,N
1539777155.6,286046997.4,N
1539777175.4,286046997.3,N
1539777195.3,286046999.2,N
1539777215.1,286046999.2,N
1539777235.9,286046996.9,Y
1539777255.7,286047001.0,P
1539777275.5,286047000.7,N
1539777295.4,286046998.9,N
1539777315.2,286046998.8,N
1539777335.0,286046998.9,N
1539777335.9,286046998.9,N
1539777355.8,286046998.7,N
1539777375.6,286046996.6,Y
1539777395.5,286046998.5,P
1539777415.3,286047001.1,N
1539777435.1,286047000.7,N
1539777455.9,286046998.1,N
1539777475.7,286047000.0,N
1539777495.6,286046998.2,N
1539777515.4,286047000.7,N
1539777535.2,286046999.1,N
1539777555.1,286046998.8,N
1539777556.0,286046998.8,N
1539777575.8,286046998.2,N
1539777595.6,286046998.9,N
